Location: Gro�bocka
(50.8204°N, 11.9702°E)
Time: 07:41:55
(UTC+00:00)

CZ-4B R/B - Pass Details

Date: 29 October 2020
Orbit: 808 x 882 km, 99.1° (Epoch: 01 December)

Event Time Altitude Azimuth Distance (km) Brightness Sun altitude
Rises 16:42:12 0° 173° (S) 3,449 6.4 -8.5°
Reaches altitude 10° 16:44:38 10° 177° (S) 2,507 5.8 -8.9°
Maximum altitude 16:50:09 61° 258° (WSW) 972 3.9 -9.7°
Drops below altitude 10° 16:55:35 10° 338° (NNW) 2,477 5.8 -10.6°
Sets 16:57:59 0° 342° (NNW) 3,405 6.5 -11.0°
